ONEWEB-0228 (48780 NORAD) Tracking and Keplerian Element Data

This shows tracking and keplerian element data for the satellite.

Feedback or suggestion? Click here.




ElementValue
Catalog48780
NameONEWEB-0228
Epoch Orbit185
Epoch Day170.58334491
Epoch Year2021
RAAN268.874
Inclination87.4074
Eccentricity0.000936
Argument of Perigee163.2214
Mean Anonmoly269.7356
Mean Motion15.32417903
Decay Rate-0.00878525
L11 48780U 21045P 21170.58334491 -.00878525 00000-0 -30509-1 0 9992
L22 48780 87.4074 268.8740 0009360 163.2214 269.7356 15.32417903 1858

Live tracking and technical data element details for ONEWEB-0228 (NORAD 48780). ONEWEB-0228 can be tracked NOW for your location showing map with azimuth and elevation plus other details from your city location.

Track the satellite on the map from your city or location and see movement details for azimuth, elevation, latitude, longitude, range, height, and movement on the map or in text.







IsCatalogInMostPopularTable: catalog: 48780, numindb: 6
Update: records affected: 1



GetName: 48780 ONEWEB-0228

Hit Count: updated at: Mon, 21 Jun 2021 03:01:37 GMT